Regional Weather Roundup
Issued by NWS Newport/Morehead, NC

Current Version | Previous Version | Text Only | Print | Product List | Glossary On
Versions: 1 2 3 4 5 6 7 8 9 10 11 12 13 14 15 16 17 18 19 20 21 22 23 24 25 26 27 28 29 30 31 32 33 34 35 36 37 38 39 40 41 42 43 44 45 46 47 48 49 50
279
ASUS42 KMHX 081912
RWRMHX
WEATHER ROUNDUP FOR EASTERN NORTH CAROLINA
NATIONAL WEATHER SERVICE NEWPORT/MOREHEAD CITY NC
200 PM EST THU DEC 08 2016

NOTE: "FAIR" INDICATES FEW OR NO CLOUDS BELOW 12,000 FEET
WITH NO SIGNIFICANT WEATHER AND/OR OBSTRUCTIONS TO VISIBILITY

NCZ015>017-031-032-045>047-102-103-082000-
NORTH COAST

CITY           SKY/WX    TMP DP  RH WIND       PRES   REMARKS
EDENTON        CLOUDY    54  43  66 NW15      30.02R
ELIZABETH CITY CLOUDY    52  46  80 W14       30.00R
KITTY HAWK     CLOUDY    53  51  94 W7        29.96F
MANTEO         CLOUDY    53  49  86 NW9G17    29.99R

$$

NCZ045>047-081-094-103-104-082000-
CENTRAL COAST

CITY           SKY/WX    TMP DP  RH WIND       PRES   REMARKS
FRISCO         NOT AVBL

$$

NCZ095-097-098-100-101-082000-
SOUTHERN COAST

CITY           SKY/WX    TMP DP  RH WIND       PRES   REMARKS
BEAUFORT       NOT AVBL
CEDAR ISLAND   NOT AVBL
JACKSONVILLE   PTSUNNY   56  50  80 NW15      30.04R
PINEY ISLAND   CLOUDY   N/A N/A N/A NW15      30.01R
WILMINGTON     PTSUNNY   60  50  69 W10       30.04S


$$

NCZ011>013-027>030-043-044-078>080-089-090>093-098-082000-
COASTAL PLAIN

CITY           SKY/WX    TMP DP  RH WIND       PRES   REMARKS
AHOSKIE        PTSUNNY   49  38  65 NW3       30.04S
CLINTON        CLOUDY    54  37  51 NW7       30.07R
ELIZABETHTOWN  PTSUNNY   55  40  58 N6        30.07R
GOLDSBORO      CLOUDY    53  22  30 NW8       30.05S
GREENVILLE     CLOUDY    52  30  43 N10G17    30.06F
HAVELOCK       CLOUDY    56  48  74 NW14      30.03S
KENANSVILLE    CLOUDY    55  36  47 NW9       30.07R
KINSTON        CLOUDY    54  30  40 NW10G17   30.06S
NEW BERN       CLOUDY    55  45  68 NW13      30.04S
RICHLANDS      CLOUDY    56  45  66 NW8       30.06R
ROCKY MOUNT    MOSUNNY   51  25  36 NW13      30.06F
WASHINGTON     CLOUDY    52  35  53 NW9G17    30.04R
WHITEVILLE     CLOUDY    57  48  73 W5        30.06S

$$

AMZ130-135-150-152-154-156-158-170-250-252-270-ANZ085-086-088-633-658-670-082000-
MARINE OBSERVATIONS

STATION/POSITION TIME  TEMP    WIND        PRES    WAVE   SWELL
                       AIR SEA DIR/SP/G            HT/PER HT/PER
                 (UTC) (F)     (DEG/KT/KT) (MB)    (FT/S) (FT/S)
CHESAPEAKE LIGHT NOT AVBL
64 E VA BEACH    1850   52 59  280/ 12/ 16 1014.4    4/ 8   3/ 8
DUCK             1836   52 54  280/ 10/ 14 1014.5
2 E DUCK         NOT AVBL
OREGON INLET     1836   53 56  190/  6/  8 1014.9
13E OREGON INLT  NOT AVBL
HATTERAS CG      1836   57 61  270/ 17/ 20 1014.8
DIAMOND BUOY     1850   61 78  290/ 14/ 19 1014.7    5/ 9   3/ 9
CAPE LOOKOUT     1900   56     300/ 16/ 19 1016.1
BEAUFORT LAB     1836   56 55  310/  7/ 16 1015.5
30 SE NEW RVR IN 1808   55 70  310/ 14/ 19 1016.8
30 SE NEW RVR IN NOT AVBL
27 SE WRIGHTSVLE 1808   58 68  270/ 12/ 17 1016.8
5 SE WRIGHTSVLE  1808   57 62  270/ 10/ 16 1016.8
225 S CAPE HAT   1850   73 74  260/ 14/ 16 1016.0    5/10   3/10
41 SE CHARLESTON 1850   60 74  300/ 10/ 14 1017.4    3/ 4   2/ 9

$$




USA.gov is the U.S. government's official web portal to all federal, state and local government web resources and services.